[[{"header":{"parameterUnit":"m.s-1","parameterCategory":1,"la1":30.2991,"la2":30.254,"lo1":-89.0895,"lo2":-89.0444,"dy":0.0017,"dx":0.0017,"nx":28,"ny":28,"refTime":"2024-12-10T03:00:00:Z","depth":0,"parameterNumber":2,"parameterNumberName":"U-component_of_WINDS"},"data":[0,0,0,0,0,0,0,0,0,0,0,0,0,0,0,0,0,0,0,0,0,0,0,0,0,0,0,0,0,0,0,0,0,0,0,0,0,0,0,0,0,0,0,0,0,0,0,0,0,0,0,0,0,0,0,0,0,0,3.3695,3.3694,0,3.3626,3.3625,3.3624,3.3522,3.352,3.3518,3.3517,3.3446,3.3446,3.3446,0,0,0,0,0,0,0,0,0,0,0,0,0,3.3741,3.3741,3.3695,3.3694,3.3693,3.3626,3.3625,3.3624,3.3522,3.352,3.3518,3.3516,3.3446,3.3446,3.3446,0,0,0,0,0,0,0,0,0,0,0,0,0,3.3701,3.374,3.3695,3.3634,3.3628,3.3626,3.3625,3.3624,3.3523,3.352,3.3517,3.3515,3.3446,3.3446,3.3446,3.3497,0,0,3.3445,3.3445,0,0,0,0,0,0,0,0,3.3704,3.37,3.3644,3.3639,3.3632,3.358,3.3615,3.3581,3.3523,3.3563,3.3517,3.3514,3.3493,3.3489,3.3481,3.3494,3.3491,3.3445,3.3445,3.3444,3.3444,0,0,0,0,0,0,0,3.3707,3.3702,3.3667,3.3643,3.3636,3.3611,3.3603,3.3608,3.3544,3.3559,3.3552,3.3545,3.3489,3.3482,3.3479,3.349,3.3445,3.3444,3.3444,3.3444,3.3545,3.3547,0,0,0,0,0,0,3.3718,3.3705,3.367,3.3665,3.3662,3.3613,3.3603,3.3599,3.3543,3.3532,3.3547,3.354,3.3484,3.348,3.3476,3.3534,3.3444,3.3444,3.3444,3.3542,3.3545,3.3548,0,0,0,0,0,0,3.372,3.3716,3.3672,3.3683,3.3676,3.3615,3.3611,3.3599,3.3592,3.3534,3.3522,3.3552,3.3482,3.3477,3.3493,3.3531,3.3444,3.3444,3.3538,3.3543,3.3547,3.3651,0,0,0,0,0,0,3.3721,3.3717,3.3735,3.3684,3.3676,3.3691,3.3613,3.36,3.3592,3.3582,3.3536,3.3525,3.3479,3.3495,3.3493,3.3529,3.3443,3.3535,3.354,3.3545,3.3644,3.3658,3.3671,0,0,0,0,0,3.3723,3.3767,3.3737,3.3733,3.3697,3.3693,3.3688,3.3634,3.3595,3.3614,3.3577,3.3527,3.3527,3.3497,3.3495,3.3531,3.3532,3.3539,3.3545,3.3638,3.3656,3.367,0,0,0,0,0,0,3.3823,3.3759,3.3725,3.3753,3.373,3.3676,3.3697,3.3654,3.364,3.3632,3.3565,3.3556,3.3582,3.3558,3.3526,3.3579,3.3522,3.3528,3.3594,3.361,3.3623,3.3628,3.3443,0,0,0,0,0,3.3848,3.385,3.3794,3.3824,3.3814,3.3758,3.3754,3.3715,3.3688,3.3677,3.3641,3.3617,3.3612,3.3609,3.3601,3.3641,3.363,3.3664,3.3678,3.3689,3.3695,3.3716,3.3732,3.357,3.3569,3.3569,0,0,3.39,3.3866,3.3871,3.3844,3.382,3.3825,3.375,3.3757,3.3759,3.3678,3.3692,3.3666,3.3634,3.3663,3.3674,3.3644,3.3738,3.3697,3.3707,3.3706,3.3725,3.374,3.3754,3.3574,3.3573,3.3572,0,0,3.3998,3.3971,3.3994,3.3974,3.394,3.3903,3.3909,3.3862,3.3842,3.3855,3.3795,3.3798,3.3789,3.377,3.3759,3.3853,3.3807,3.3853,3.3922,3.3944,3.3956,3.3967,3.4002,3.4015,3.3859,3.3859,3.3859,0,3.4066,3.4069,3.4012,3.4023,3.4014,3.3942,3.3966,3.3948,3.3914,3.391,3.3877,3.3867,3.384,3.3865,3.3888,3.3882,3.3887,3.3857,3.3959,3.397,3.3979,3.4012,3.4025,3.3865,3.3864,3.3864,3.3863,0,3.4157,3.416,3.4183,3.4153,3.4146,3.4164,3.411,3.4111,3.4073,3.4041,3.4057,3.4023,3.4008,3.4011,3.3973,3.4031,3.4014,3.3971,3.3912,3.4001,3.4031,3.4043,3.3873,3.3871,3.3869,3.3868,0,0,3.4312,3.4252,3.4262,3.4248,3.4208,3.4209,3.4225,3.4211,3.4213,3.4193,3.4205,3.4202,3.4163,3.4151,3.4111,3.413,3.4209,3.4085,3.4084,3.411,3.4273,3.4306,3.4321,3.4179,3.4181,3.4183,3.4276,0,3.4401,3.4424,3.4374,3.4409,3.4413,3.4346,3.436,3.4338,3.4308,3.4307,3.4274,3.4274,3.4222,3.4214,3.423,3.4196,3.4241,3.4189,3.4191,3.4191,3.4201,3.4336,3.437,3.4459,3.4287,3.4289,3.429,0,3.4508,3.4494,3.453,3.449,3.449,3.4503,3.4488,3.4487,3.4462,3.4439,3.4428,3.4382,3.4396,3.434,3.4359,3.4325,3.4323,3.4307,3.431,3.4307,3.4246,3.4338,3.4486,3.45,3.4308,3.4306,3.4305,0,3.4619,3.461,3.4631,3.4621,3.4574,3.4586,3.4567,3.4538,3.4534,3.4521,3.4518,3.4507,3.45,3.4494,3.4447,3.441,3.4473,3.4412,3.4455,3.4457,3.4471,3.447,3.4621,3.4469,3.4469,3.4469,3.4469,0,3.4724,3.4749,3.468,3.4693,3.472,3.4664,3.4692,3.4667,3.4642,3.465,3.4592,3.46,3.4538,3.4541,3.4504,3.4527,3.4524,3.4507,3.4498,3.4513,3.4515,3.451,3.4503,3.4472,3.4472,3.4471,3.447,0,3.4851,3.4807,3.4825,3.4781,3.477,3.4792,3.4754,3.4765,3.4733,3.4744,3.4744,3.4693,3.4694,3.4647,3.4637,3.4613,3.4651,3.463,3.466,3.4653,3.4699,3.4696,3.4852,3.4871,3.4707,3.4709,3.471,0,3.4921,3.4939,3.4897,3.4899,3.4883,3.4886,3.4881,3.4828,3.4826,3.48,3.4815,3.481,3.4804,3.4808,3.4771,3.4764,3.4742,3.4798,3.4741,3.4756,3.4744,3.4744,3.4746,3.4809,3.4811,3.4813,3.4814,0,3.505,3.5028,3.5024,3.5014,3.5011,3.5,3.4985,3.499,3.4932,3.4933,3.4933,3.4928,3.492,3.4917,3.4904,3.4885,3.4841,3.4833,3.4843,3.4858,3.4876,3.4868,3.4693,3.4829,3.4828,3.4827,3.4826,3.4825,3.5151,3.5165,3.5139,3.5137,3.5121,3.511,3.5119,3.5089,3.5088,3.5077,3.5046,3.5051,3.5028,3.5006,3.4992,3.4996,3.4969,3.4982,3.4986,3.499,3.5,3.4876,3.4994,3.4993,3.4993,3.4992,3.4992,0,3.5278,3.5258,3.5258,3.524,3.524,3.5199,3.5182,3.5185,3.5191,3.5172,3.5168,3.517,3.5168,3.5132,3.5126,3.5137,3.5117,3.5137,3.5136,3.5133,3.5024,3.5017,3.5154,3.5154,3.5154,3.5154,3.5154,3.5154,3.5343,3.5365,3.5341,3.5355,3.5335,3.5341,3.5335,3.5325,3.531,3.5315,3.5313,3.529,3.5266,3.5258,3.5255,3.5245,3.5246,3.5273,3.5257,3.5156,3.514,3.5125,3.5118,3.5274,3.5274,3.5365,3.5366,3.5366]},{"header":{"parameterUnit":"m.s-1","parameterCategory":1,"la1":30.2991,"la2":30.254,"lo1":-89.0895,"lo2":-89.0444,"dy":0.0017,"dx":0.0017,"nx":28,"ny":28,"refTime":"2024-12-10T03:00:00:Z","depth":0,"parameterNumber":3,"parameterNumberName":"V-component_of_WINDS"},"data":[0,0,0,0,0,0,0,0,0,0,0,0,0,0,0,0,0,0,0,0,0,0,0,0,0,0,0,0,0,0,0,0,0,0,0,0,0,0,0,0,0,0,0,0,0,0,0,0,0,0,0,0,0,0,0,0,0,0,3.4635,3.4637,0,3.482,3.4822,3.4824,3.4858,3.4856,3.4855,3.4853,3.5038,3.5044,3.5051,0,0,0,0,0,0,0,0,0,0,0,0,0,3.4303,3.4309,3.4635,3.4637,3.4639,3.482,3.4822,3.4825,3.4858,3.4856,3.4854,3.4852,3.5036,3.5043,3.5051,0,0,0,0,0,0,0,0,0,0,0,0,0,3.4463,3.4311,3.4634,3.4678,3.4684,3.4819,3.4822,3.4825,3.4858,3.4856,3.4854,3.4852,3.5034,3.5043,3.5052,3.5156,0,0,3.5081,3.5085,0,0,0,0,0,0,0,0,3.4454,3.4476,3.4669,3.4675,3.4682,3.4813,3.4773,3.4936,3.4859,3.4792,3.4853,3.485,3.4965,3.498,3.5019,3.5165,3.5173,3.5082,3.5088,3.5092,3.5095,0,0,0,0,0,0,0,3.4443,3.4468,3.4708,3.4672,3.468,3.4686,3.4706,3.4804,3.4889,3.4797,3.48,3.4822,3.4968,3.501,3.5024,3.5175,3.5082,3.509,3.5096,3.51,3.5412,3.5415,0,0,0,0,0,0,3.4425,3.4458,3.4702,3.4713,3.456,3.4694,3.4716,3.4773,3.4888,3.4903,3.4824,3.4823,3.4995,3.5013,3.5031,3.5159,3.5092,3.5101,3.5106,3.541,3.5413,3.5416,0,0,0,0,0,0,3.4418,3.4447,3.4695,3.4587,3.4619,3.4702,3.4766,3.4778,3.4821,3.4908,3.4922,3.4852,3.4994,3.5017,3.5124,3.5166,3.5105,3.5114,3.5407,3.5411,3.5414,3.5417,0,0,0,0,0,0,3.4408,3.4444,3.4486,3.4588,3.4625,3.4787,3.4768,3.4783,3.4838,3.4838,3.4938,3.4952,3.4994,3.511,3.5134,3.5178,3.5121,3.5403,3.5408,3.5413,3.5413,3.542,3.5426,0,0,0,0,0,3.4396,3.4479,3.4488,3.4517,3.4679,3.479,3.4811,3.4858,3.4841,3.4883,3.4938,3.4949,3.5157,3.5121,3.5148,3.5195,3.5401,3.5407,3.5413,3.5411,3.5419,3.5426,0,0,0,0,0,0,3.438,3.4493,3.4505,3.4623,3.4697,3.4795,3.485,3.4866,3.4945,3.4942,3.4996,3.5018,3.5122,3.5169,3.5127,3.53,3.5277,3.5289,3.5266,3.5275,3.5281,3.5268,3.5129,0,0,0,0,0,3.439,3.4472,3.4566,3.4661,3.4697,3.4767,3.4817,3.4847,3.4925,3.4956,3.5019,3.5092,3.5174,3.5227,3.5307,3.5419,3.5441,3.5465,3.5471,3.5476,3.5486,3.5547,3.5558,3.5435,3.5435,3.5435,0,0,3.4411,3.4484,3.4532,3.4659,3.472,3.4802,3.4793,3.488,3.4941,3.4969,3.5074,3.5122,3.5208,3.5317,3.5369,3.536,3.5524,3.5484,3.5487,3.5494,3.5554,3.5565,3.5576,3.5439,3.5438,3.5438,0,0,3.4493,3.4556,3.4642,3.4703,3.4794,3.484,3.486,3.4956,3.499,3.5096,3.5118,3.5189,3.5329,3.5389,3.5437,3.5537,3.555,3.5561,3.5595,3.5654,3.5664,3.5672,3.5707,3.5719,3.557,3.557,3.557,0,3.4508,3.4635,3.4684,3.477,3.4824,3.4853,3.4939,3.4994,3.5107,3.5143,3.5131,3.5306,3.5365,3.5488,3.5512,3.5551,3.5574,3.5551,3.5658,3.5668,3.5677,3.5711,3.5724,3.5571,3.5571,3.5571,3.5571,0,3.4648,3.4734,3.4792,3.4901,3.4961,3.5047,3.5107,3.5161,3.5185,3.523,3.5336,3.5408,3.5503,3.5534,3.5558,3.5659,3.5651,3.5648,3.5626,3.5689,3.5721,3.5735,3.5572,3.5572,3.5572,3.5571,0,0,3.4727,3.486,3.4881,3.493,3.5031,3.5098,3.5183,3.5276,3.5321,3.5397,3.5468,3.5584,3.5582,3.5636,3.5666,3.5718,3.5791,3.5708,3.5711,3.5721,3.5906,3.5908,3.5923,3.5799,3.5801,3.5804,3.5899,0,3.4821,3.4977,3.5021,3.5151,3.523,3.5257,3.533,3.5399,3.5443,3.5514,3.5562,3.5643,3.5634,3.5667,3.5719,3.5771,3.5829,3.5765,3.5865,3.5868,3.5844,3.594,3.5943,3.603,3.5912,3.5914,3.5916,0,3.4953,3.5031,3.5169,3.5259,3.5293,3.5359,3.5447,3.5516,3.5593,3.562,3.568,3.5705,3.5792,3.5763,3.5883,3.5838,3.5881,3.5912,3.5916,3.5929,3.5896,3.5955,3.6059,3.6072,3.5936,3.5935,3.5933,0,3.4996,3.5136,3.5237,3.5277,3.5384,3.5429,3.5476,3.5551,3.5603,3.5678,3.5712,3.5796,3.5842,3.5905,3.5951,3.5926,3.6065,3.6041,3.609,3.6088,3.6119,3.6117,3.6232,3.6145,3.6145,3.6145,3.6144,0,3.5097,3.5181,3.5257,3.5319,3.5412,3.5461,3.5551,3.5597,3.5663,3.5733,3.5759,3.5823,3.5879,3.595,3.5986,3.6078,3.6098,3.6122,3.6131,3.6121,3.6118,3.6151,3.6146,3.6148,3.6147,3.6147,3.6146,0,3.5163,3.5218,3.5329,3.5421,3.5445,3.5509,3.5587,3.5646,3.5689,3.5776,3.5799,3.5867,3.5951,3.6003,3.6109,3.6133,3.6235,3.6241,3.6209,3.6214,3.6259,3.6254,3.64,3.6422,3.6319,3.632,3.6321,0,3.5225,3.529,3.5387,3.5437,3.5484,3.5562,3.5615,3.5664,3.5718,3.5809,3.5857,3.5943,3.6015,3.6147,3.6205,3.6285,3.6294,3.6339,3.6306,3.6293,3.6295,3.6291,3.6297,3.6345,3.6346,3.6347,3.6347,0,3.5328,3.5351,3.5428,3.5514,3.5577,3.5646,3.5715,3.5753,3.5813,3.5871,3.5959,3.6014,3.6122,3.6207,3.6292,3.6337,3.6352,3.6357,3.6372,3.6363,3.6343,3.6354,3.6225,3.6354,3.6353,3.6353,3.6352,3.6352,3.5394,3.5452,3.553,3.5614,3.567,3.5733,3.5793,3.5844,3.5918,3.6011,3.6034,3.6125,3.6197,3.6313,3.6359,3.6429,3.6422,3.6445,3.6451,3.6456,3.6457,3.633,3.6445,3.6445,3.6445,3.6444,3.6444,0,3.5499,3.5549,3.5626,3.5722,3.5787,3.5795,3.5871,3.5924,3.6004,3.6071,3.614,3.6239,3.632,3.6382,3.6465,3.6509,3.6518,3.6529,3.6527,3.6537,3.6458,3.6437,3.6521,3.6521,3.6521,3.652,3.652,3.652,3.5561,3.566,3.5691,3.5816,3.5866,3.5957,3.5999,3.6056,3.6109,3.6219,3.6287,3.6327,3.6391,3.6478,3.6552,3.6568,3.6597,3.6607,3.6624,3.6551,3.6542,3.6535,3.6515,3.6613,3.6613,3.6697,3.6698,3.6698]}]]